K5TWC Weather Reports


time (UTC)temp
C
wind
direction
speed
KPH
gust
KPH
rain 1hr
cm
rain 24hr
cm
rain mn
cm
humidity
%
barometer
mb
20260904224004 36 163 1.6 16.1 0.00 0.00 0.00 46 1011.9
20260904223504 36 164 4.8 16.1 0.00 0.00 0.00 47 1011.9
20260904223012 36 162 3.2 16.1 0.00 0.00 0.00 48 1012.0
20260904222506 36 133 4.8 16.1 0.00 0.00 0.00 48 1012.1
20260904222008 36 98 3.2 14.5 0.00 0.00 0.00 49 1012.0
20260904221534 36 138 3.2 14.5 0.00 0.00 0.00 49 1012.0
20260904221008 36 153 3.2 16.1 0.00 0.00 0.00 48 1012.0
20260904220511 36 150 4.8 16.1 0.00 0.00 0.00 48 1012.0
20260904220022 37 151 4.8 16.1 0.00 0.00 0.00 48 1012.1
20260904215511 37 187 6.4 16.1 0.00 0.00 0.00 47 1012.1
20260904215009 37 198 6.4 16.1 0.00 0.00 0.00 48 1012.2
20260904214525 37 142 4.8 16.1 0.00 0.00 0.00 47 1012.2
20260904214014 37 169 3.2 16.1 0.00 0.00 0.00 48 1012.2
20260904213510 37 183 1.6 17.7 0.00 0.00 0.00 49 1012.2
20260904213023 37 161 1.6 17.7 0.00 0.00 0.00 48 1012.2
20260904212505 37 109 3.2 16.1 0.00 0.00 0.00 48 1012.3
20260904212004 37 188 1.6 11.3 0.00 0.00 0.00 48 1012.3
20260904211512 37 155 3.2 14.5 0.00 0.00 0.00 48 1012.4
20260904211006 37 124 0.0 16.1 0.00 0.00 0.00 48 1012.4
20260904210508 37 173 3.2 17.7 0.00 0.00 0.00 48 1012.6
20260904210023 37 123 6.4 17.7 0.00 0.00 0.00 47 1012.5
20260904205510 37 199 0.0 20.9 0.00 0.00 0.00 47 1012.6
20260904205012 37 166 3.2 20.9 0.00 0.00 0.00 48 1012.7
20260904204528 37 158 4.8 14.5 0.00 0.00 0.00 48 1012.7
20260904204011 37 231 3.2 14.5 0.00 0.00 0.00 48 1012.7
20260904203510 37 141 4.8 17.7 0.00 0.00 0.00 48 1012.9
20260904203031 37 159 0.0 17.7 0.00 0.00 0.00 48 1013.0
20260904202503 37 193 0.0 17.7 0.00 0.00 0.00 48 1013.0
20260904202004 37 163 4.8 17.7 0.00 0.00 0.00 47 1013.1
20260904201520 37 258 3.2 17.7 0.00 0.00 0.00 48 1013.2
20260904201005 37 172 6.4 17.7 0.00 0.00 0.00 47 1013.3
20260904200507 37 151 9.7 17.7 0.00 0.00 0.00 47 1013.4
20260904200018 37 231 4.8 14.5 0.00 0.00 0.00 47 1013.4
20260904195507 37 140 1.6 14.5 0.00 0.00 0.00 47 1013.5
20260904195008 37 136 1.6 14.5 0.00 0.00 0.00 47 1013.5
20260904194552 37 144 1.6 14.5 0.00 0.00 0.00 48 1013.7
20260904194012 36 139 3.2 14.5 0.00 0.00 0.00 48 1013.7
20260904193512 36 141 1.6 16.1 0.00 0.00 0.00 49 1013.8
20260904193037 36 144 4.8 16.1 0.00 0.00 0.00 50 1013.8
20260904192502 36 153 6.4 16.1 0.00 0.00 0.00 50 1013.8
20260904192005 36 169 4.8 16.1 0.00 0.00 0.00 49 1013.9
20260904191507 36 284 1.6 14.5 0.00 0.00 0.00 50 1013.9
20260904191003 36 194 4.8 16.1 0.00 0.00 0.00 50 1013.9
20260904190503 36 203 4.8 19.3 0.00 0.00 0.00 51 1014.0
20260904190011 36 159 6.4 19.3 0.00 0.00 0.00 50 1014.0
20260904185506 36 155 4.8 19.3 0.00 0.00 0.00 49 1014.1
20260904185008 36 164 0.0 17.7 0.00 0.00 0.00 50 1014.2
20260904184521 36 202 0.0 17.7 0.00 0.00 0.00 52 1014.2
20260904184009 36 193 6.4 16.1 0.00 0.00 0.00 51 1014.2
20260904183510 36 168 1.6 14.5 0.00 0.00 0.00 53 1014.4
20260904183023 35 195 0.0 16.1 0.00 0.00 0.00 54 1014.5
20260904182513 35 147 4.8 16.1 0.00 0.00 0.00 53 1014.6
20260904182016 35 157 0.0 19.3 0.00 0.00 0.00 54 1014.7
20260904181527 35 184 0.0 19.3 0.00 0.00 0.00 54 1014.8
20260904181003 35 184 3.2 20.9 0.00 0.00 0.00 55 1014.9
20260904180503 35 128 8.0 20.9 0.00 0.00 0.00 55 1015.0
20260904180008 35 159 1.6 16.1 0.00 0.00 0.00 55 1015.1
20260904175503 35 123 4.8 16.1 0.00 0.00 0.00 55 1015.1
20260904175003 35 138 3.2 14.5 0.00 0.00 0.00 55 1015.1
20260904174516 35 152 4.8 14.5 0.00 0.00 0.00 55 1015.2
20260904174007 35 161 4.8 16.1 0.00 0.00 0.00 55 1015.2
20260904173509 35 112 6.4 17.7 0.00 0.00 0.00 55 1015.3
20260904173027 35 150 4.8 17.7 0.00 0.00 0.00 56 1015.4
20260904172511 34 178 3.2 14.5 0.00 0.00 0.00 59 1015.5
20260904172012 34 153 3.2 14.5 0.00 0.00 0.00 60 1015.5
20260904171538 33 143 4.8 16.1 0.00 0.00 0.00 60 1015.6
20260904171011 33 189 4.8 19.3 0.00 0.00 0.00 60 1015.6
20260904170513 33 146 9.7 19.3 0.00 0.00 0.00 62 1015.6
20260904170031 33 161 3.2 17.7 0.00 0.00 0.00 62 1015.6
20260904165505 33 145 9.7 17.7 0.00 0.00 0.00 63 1015.6
20260904165004 33 138 4.8 16.1 0.00 0.00 0.00 64 1015.6
20260904164510 33 140 6.4 17.7 0.00 0.00 0.00 64 1015.7
20260904164003 33 165 6.4 17.7 0.00 0.00 0.00 65 1015.7
20260904163504 33 155 6.4 17.7 0.00 0.00 0.00 65 1015.8
20260904163015 33 164 6.4 16.1 0.00 0.00 0.00 64 1015.8
20260904162506 33 206 3.2 19.3 0.00 0.00 0.00 64 1015.8
20260904162012 33 143 8.0 19.3 0.00 0.00 0.00 64 1015.7
20260904161527 33 126 0.0 12.9 0.00 0.00 0.00 66 1015.7
20260904161011 32 194 0.0 16.1 0.00 0.00 0.00 67 1015.8
20260904160510 32 186 0.0 16.1 0.00 0.00 0.00 67 1015.8
20260904160030 32 192 1.6 14.5 0.00 0.00 0.00 69 1015.8
20260904155512 32 209 1.6 14.5 0.00 0.00 0.00 69 1015.9
20260904155014 32 182 3.2 19.3 0.00 0.00 0.00 71 1015.8
20260904154530 32 138 1.6 19.3 0.00 0.00 0.00 71 1015.8
20260904154003 32 184 1.6 12.9 0.00 0.00 0.00 70 1015.8
20260904153503 32 178 1.6 8.0 0.00 0.00 0.00 70 1015.8
20260904153021 32 198 0.0 14.5 0.00 0.00 0.00 69 1015.6
20260904152503 32 153 4.8 14.5 0.00 0.00 0.00 69 1015.6
20260904152008 32 196 1.6 12.9 0.00 0.00 0.00 70 1015.6
20260904151533 31 205 1.6 12.9 0.00 0.00 0.00 70 1015.5
20260904151010 31 187 0.0 12.9 0.00 0.00 0.00 72 1015.5
20260904150512 31 171 0.0 9.7 0.00 0.00 0.00 73 1015.5
20260904150028 31 165 1.6 16.1 0.00 0.00 0.00 74 1015.5
20260904145513 31 127 0.0 16.1 0.00 0.00 0.00 76 1015.5
20260904145012 30 158 3.2 16.1 0.00 0.00 0.00 76 1015.5
20260904144526 30 150 1.6 12.9 0.00 0.00 0.00 77 1015.5
20260904144014 30 181 1.6 12.9 0.00 0.00 0.00 77 1015.5
20260904143515 30 207 3.2 8.0 0.00 0.00 0.00 78 1015.5
20260904143033 30 196 0.0 8.0 0.00 0.00 0.00 79 1015.6
20260904142503 30 238 0.0 12.9 0.00 0.00 0.00 80 1015.6
20260904142005 29 185 1.6 12.9 0.00 0.00 0.00 80 1015.5
20260904141515 29 190 1.6 11.3 0.00 0.00 0.00 81 1015.5
20260904141010 28 204 0.0 16.1 0.00 0.00 0.00 83 1015.5
20260904140509 28 157 1.6 16.1 0.00 0.00 0.00 84 1015.5
20260904140023 28 152 1.6 16.1 0.00 0.00 0.00 84 1015.5
20260904135515 28 184 3.2 16.1 0.00 0.00 0.00 85 1015.5
20260904135011 27 191 3.2 14.5 0.00 0.00 0.00 86 1015.4
20260904134526 27 160 4.8 14.5 0.00 0.00 0.00 87 1015.3
20260904134011 27 194 4.8 14.5 0.00 0.00 0.00 88 1015.3
20260904133515 26 173 1.6 14.5 0.00 0.00 0.00 89 1015.3
20260904133030 26 194 1.6 14.5 0.00 0.00 0.00 90 1015.3
20260904132516 26 167 3.2 14.5 0.00 0.00 0.00 90 1015.2
20260904132014 26 169 4.8 14.5 0.00 0.00 0.00 90 1015.2
20260904131531 26 189 4.8 12.9 0.00 0.00 0.00 91 1015.1
20260904131004 26 203 3.2 12.9 0.00 0.00 0.00 91 1015.1
20260904130506 26 147 1.6 12.9 0.00 0.00 0.00 91 1015.1
20260904130016 26 166 1.6 14.5 0.00 0.00 0.00 91 1015.0
20260904125508 25 188 1.6 14.5 0.00 0.00 0.00 91 1015.0
20260904125010 25 165 3.2 16.1 0.00 0.00 0.00 91 1014.9
20260904124524 25 157 0.0 16.1 0.00 0.00 0.00 91 1015.0
20260904124010 25 168 1.6 14.5 0.00 0.00 0.00 92 1015.0
20260904123515 25 147 3.2 11.3 0.00 0.00 0.00 92 1014.9
20260904123027 25 182 0.0 11.3 0.00 0.00 0.00 92 1014.9
20260904122518 25 152 0.0 11.3 0.00 0.00 0.00 92 1014.9
20260904122015 25 182 0.0 11.3 0.00 0.03 0.00 92 1014.9
20260904121535 25 192 3.2 16.1 0.00 0.03 0.00 92 1014.9
20260904121016 25 186 1.6 16.1 0.00 0.03 0.00 92 1014.9
20260904120518 25 189 0.0 6.4 0.00 0.05 0.00 92 1014.9
20260904120037 25 188 0.0 9.7 0.00 0.08 0.00 92 1014.8
20260904115507 25 169 0.0 9.7 0.00 0.10 0.00 92 1014.8
20260904115006 25 172 1.6 9.7 0.00 0.10 0.00 92 1014.7
20260904114520 25 167 0.0 9.7 0.00 0.10 0.00 91 1014.6
20260904114013 25 180 0.0 9.7 0.00 0.10 0.00 91 1014.5
20260904113512 25 188 1.6 16.1 0.00 0.10 0.00 91 1014.6
20260904113033 25 205 3.2 16.1 0.00 0.10 0.00 91 1014.5
20260904112517 25 182 0.0 12.9 0.00 0.10 0.00 91 1014.5
20260904112013 25 173 0.0 9.7 0.00 0.10 0.00 91 1014.4
20260904111529 25 159 0.0 9.7 0.00 0.10 0.00 91 1014.4
20260904111022 25 173 0.0 9.7 0.00 0.10 0.00 90 1014.3
20260904110516 25 186 0.0 11.3 0.00 0.10 0.00 90 1014.3
20260904110031 25 169 1.6 11.3 0.00 0.10 0.00 90 1014.3
20260904105517 25 184 0.0 11.3 0.00 0.10 0.00 90 1014.3
20260904105014 25 180 3.2 11.3 0.00 0.10 0.00 90 1014.3
20260904104531 25 157 3.2 9.7 0.00 0.10 0.00 89 1014.2
20260904104007 25 152 0.0 9.7 0.00 0.10 0.00 89 1014.2
20260904103510 25 159 0.0 9.7 0.00 0.10 0.00 89 1014.2
20260904103023 25 160 0.0 9.7 0.00 0.10 0.00 89 1014.2
20260904102510 25 162 0.0 9.7 0.00 0.10 0.00 89 1014.2
20260904102003 25 180 0.0 9.7 0.00 0.10 0.00 88 1014.1
20260904101503 25 177 0.0 8.0 0.00 0.10 0.00 88 1014.0
20260904101003 25 184 1.6 8.0 0.00 0.10 0.00 88 1014.0
20260904100503 25 166 0.0 8.0 0.00 0.10 0.00 88 1014.0
20260904100009 25 167 1.6 8.0 0.00 0.10 0.00 87 1014.0
20260904095503 25 176 0.0 4.8 0.00 0.10 0.00 87 1014.0
20260904095004 25 177 0.0 8.0 0.00 0.10 0.00 87 1014.0
20260904094512 25 169 0.0 9.7 0.00 0.10 0.00 87 1014.0
20260904094004 25 169 0.0 9.7 0.00 0.10 0.00 87 1014.0
20260904093510 25 186 0.0 4.8 0.00 0.10 0.00 86 1013.9
20260904093021 25 186 0.0 4.8 0.00 0.10 0.00 86 1014.0
20260904092512 25 196 0.0 4.8 0.00 0.10 0.00 86 1013.9
20260904092012 25 196 0.0 4.8 0.00 0.10 0.00 85 1014.0
20260904091524 25 196 0.0 1.6 0.00 0.10 0.00 85 1014.0
20260904091005 25 197 0.0 4.8 0.00 0.10 0.00 85 1014.0
20260904090503 25 196 0.0 4.8 0.00 0.10 0.00 85 1013.9
20260904090006 25 186 0.0 4.8 0.00 0.10 0.00 84 1013.9
20260904085504 26 186 0.0 11.3 0.00 0.10 0.00 84 1013.9
20260904085007 26 179 0.0 11.3 0.00 0.10 0.00 84 1013.9
20260904084508 26 197 0.0 12.9 0.00 0.10 0.00 84 1013.9
20260904084003 26 144 3.2 12.9 0.00 0.10 0.00 85 1013.8
20260904083505 26 188 0.0 8.0 0.00 0.10 0.00 85 1013.8
20260904083019 26 161 0.0 8.0 0.00 0.10 0.00 84 1013.8
20260904082507 25 200 0.0 6.4 0.00 0.10 0.00 84 1013.9
20260904082007 25 200 0.0 6.4 0.00 0.10 0.00 84 1013.8
20260904081522 25 200 0.0 4.8 0.00 0.10 0.00 83 1013.8
20260904081010 25 193 0.0 4.8 0.00 0.10 0.00 83 1013.8
20260904080511 25 191 0.0 4.8 0.00 0.10 0.00 83 1013.9
20260904080038 26 191 0.0 1.6 0.00 0.10 0.00 83 1014.0
20260904075503 26 191 0.0 1.6 0.00 0.10 0.00 83 1013.9
20260904075004 26 192 0.0 1.6 0.00 0.10 0.00 83 1013.8
20260904074514 26 191 0.0 3.2 0.00 0.10 0.00 83 1013.8
20260904074003 26 191 0.0 3.2 0.00 0.10 0.00 83 1013.7
20260904073508 26 192 0.0 4.8 0.00 0.10 0.00 82 1013.8
20260904073009 26 192 0.0 6.4 0.00 0.10 0.00 82 1013.7
20260904072507 26 193 0.0 9.7 0.00 0.10 0.00 82 1013.8
20260904072006 26 169 1.6 9.7 0.00 0.10 0.00 82 1013.8
20260904071515 26 203 0.0 9.7 0.00 0.10 0.00 82 1013.9
20260904071008 26 210 0.0 4.8 0.00 0.10 0.00 81 1013.9
20260904070511 26 206 0.0 8.0 0.00 0.10 0.00 81 1014.0
20260904070024 26 206 0.0 8.0 0.00 0.10 0.00 81 1014.1
20260904065512 26 218 0.0 9.7 0.00 0.10 0.00 81 1014.1
20260904065012 26 211 0.0 9.7 0.00 0.10 0.00 81 1014.0
20260904064527 26 234 0.0 6.4 0.00 0.10 0.00 80 1014.0
20260904064003 26 187 0.0 6.4 0.00 0.10 0.00 80 1014.0
20260904063504 26 209 0.0 9.7 0.00 0.10 0.00 80 1014.0
20260904063014 26 173 1.6 9.7 0.00 0.10 0.00 80 1014.1
20260904062504 26 191 1.6 6.4 0.00 0.10 0.00 80 1014.1
20260904062003 26 199 0.0 3.2 0.00 0.10 0.00 79 1014.1
20260904061520 26 202 0.0 9.7 0.00 0.10 0.00 79 1014.0
20260904061008 26 200 0.0 9.7 0.00 0.10 0.00 79 1014.0
20260904060509 26 200 0.0 4.8 0.00 0.10 0.00 78 1014.0
20260904060020 26 207 0.0 9.7 0.00 0.10 0.00 78 1014.0
20260904055508 26 214 0.0 9.7 0.00 0.10 0.00 78 1014.0
20260904055011 26 202 0.0 4.8 0.00 0.10 0.00 78 1014.0
20260904054524 26 206 0.0 4.8 0.00 0.10 0.00 77 1014.1
20260904054013 26 205 0.0 8.0 0.00 0.10 0.00 77 1014.0
20260904053513 26 209 0.0 9.7 0.00 0.10 0.00 77 1014.0
20260904053029 26 189 0.0 9.7 0.00 0.10 0.00 77 1013.9
20260904052504 26 185 1.6 9.7 0.00 0.10 0.00 77 1013.9
20260904052004 26 204 0.0 9.7 0.00 0.10 0.00 77 1013.9
20260904051525 27 182 0.0 8.0 0.00 0.10 0.00 77 1013.9
20260904051004 27 198 0.0 9.7 0.00 0.10 0.00 76 1013.9
20260904050505 27 169 0.0 11.3 0.00 0.10 0.00 75 1013.9
20260904050015 27 174 0.0 11.3 0.00 0.10 0.00 75 1013.9
20260904045509 27 211 1.6 11.3 0.00 0.10 0.10 74 1014.0
20260904045011 27 189 3.2 11.3 0.00 0.10 0.10 74 1014.0
20260904044534 27 138 0.0 12.9 0.00 0.10 0.10 73 1014.1
20260904044011 27 221 1.6 12.9 0.00 0.10 0.10 73 1014.0
20260904043515 27 140 3.2 12.9 0.00 0.10 0.10 73 1014.0
20260904043027 27 211 0.0 12.9 0.00 0.10 0.10 73 1014.1
20260904042513 27 211 0.0 12.9 0.00 0.10 0.10 73 1014.2
20260904042019 27 159 0.0 12.9 0.00 0.10 0.10 73 1014.2
20260904041537 27 188 1.6 8.0 0.00 0.10 0.10 73 1014.2
20260904041003 27 163 0.0 4.8 0.00 0.10 0.10 72 1014.2
20260904040505 27 213 0.0 4.8 0.00 0.10 0.10 72 1014.1
20260904040012 27 194 0.0 6.4 0.00 0.10 0.10 72 1014.1
20260904035504 27 166 0.0 9.7 0.00 0.10 0.10 72 1014.1
20260904035008 27 148 1.6 9.7 0.00 0.10 0.10 72 1014.1
20260904034520 27 198 0.0 8.0 0.00 0.10 0.10 72 1014.1
20260904034010 27 190 0.0 12.9 0.00 0.10 0.10 72 1014.0
20260904033512 27 199 1.6 12.9 0.00 0.10 0.10 72 1014.2
20260904033025 27 178 1.6 12.9 0.00 0.10 0.10 72 1014.2
20260904032511 27 186 1.6 14.5 0.00 0.10 0.10 72 1014.3
20260904032014 27 191 3.2 14.5 0.00 0.10 0.10 73 1014.3
20260904031529 27 211 3.2 14.5 0.00 0.10 0.10 72 1014.2
20260904031017 27 179 4.8 16.1 0.00 0.10 0.10 72 1014.1
20260904030516 28 153 6.4 16.1 0.00 0.10 0.10 73 1014.1
20260904030008 28 175 4.8 12.9 0.00 0.10 0.10 73 1014.0
20260904025504 28 190 3.2 11.3 0.00 0.10 0.10 74 1013.9
20260904025004 28 194 1.6 11.3 0.00 0.10 0.10 74 1013.9
20260904024516 28 177 1.6 11.3 0.00 0.10 0.10 74 1013.9
20260904024008 28 207 3.2 9.7 0.00 0.10 0.10 73 1013.8
20260904023510 28 177 0.0 11.3 0.00 0.10 0.10 73 1013.7
20260904023019 28 196 3.2 14.5 0.00 0.10 0.10 73 1013.6
20260904022511 28 192 1.6 17.7 0.00 0.10 0.10 72 1013.4
20260904022012 28 186 3.2 17.7 0.00 0.10 0.10 72 1013.2
20260904021524 28 175 3.2 16.1 0.00 0.10 0.10 72 1013.2
20260904021012 28 165 3.2 19.3 0.00 0.10 0.10 72 1013.1
20260904020514 28 191 6.4 19.3 0.00 0.10 0.10 72 1013.0
20260904020040 28 193 3.2 14.5 0.00 0.10 0.10 72 1012.9
20260904015514 28 178 3.2 14.5 0.00 0.10 0.10 72 1012.9
20260904015018 28 188 4.8 12.9 0.00 0.10 0.10 72 1012.8
20260904014510 29 216 4.8 12.9 0.00 0.10 0.10 72 1012.8
20260904014006 29 184 1.6 14.5 0.00 0.10 0.10 73 1012.7
20260904013505 29 190 1.6 14.5 0.00 0.10 0.10 73 1012.7
20260904013018 29 196 4.8 19.3 0.00 0.10 0.10 73 1012.6
20260904012514 29 169 3.2 19.3 0.00 0.10 0.10 73 1012.6
20260904012010 29 170 3.2 14.5 0.00 0.10 0.10 73 1012.5
20260904011528 29 142 1.6 9.7 0.00 0.10 0.10 73 1012.4
20260904011010 30 193 1.6 14.5 0.00 0.10 0.10 72 1012.3
20260904010513 30 159 0.0 20.9 0.00 0.10 0.10 72 1012.4
20260904010030 30 124 6.4 20.9 0.00 0.10 0.10 71 1012.3
20260904005515 30 224 4.8 17.7 0.00 0.10 0.10 71 1012.4
20260904005012 30 190 1.6 24.1 0.00 0.10 0.10 71 1012.5
20260904004530 30 157 8.0 24.1 0.00 0.10 0.10 70 1012.4
20260904004014 30 183 6.4 17.7 0.00 0.10 0.10 70 1012.5
20260904003516 30 160 6.4 19.3 0.00 0.10 0.10 69 1012.4
20260904003013 30 148 4.8 19.3 0.00 0.10 0.10 68 1012.4
20260904002506 31 109 4.8 14.5 0.00 0.10 0.10 68 1012.3
20260904002006 31 123 1.6 19.3 0.00 0.10 0.10 67 1012.3
20260904001519 31 143 6.4 22.5 0.00 0.10 0.10 66 1012.3
20260904001008 31 153 6.4 22.5 0.00 0.10 0.10 65 1012.3
20260904000511 31 170 6.4 19.3 0.00 0.10 0.10 64 1012.3
20260904000028 31 178 4.8 20.9 0.00 0.10 0.10 63 1012.3
20260903235509 31 130 6.4 20.9 0.00 0.10 0.10 62 1012.3
20260903235018 31 126 6.4 16.1 0.00 0.10 0.10 62 1012.2
20260903234528 31 152 4.8 24.1 0.00 0.10 0.10 63 1012.3
20260903234015 31 138 6.4 24.1 0.00 0.10 0.10 63 1012.3
20260903233514 31 155 8.0 19.3 0.00 0.10 0.10 63 1012.2
20260903233034 32 144 6.4 19.3 0.00 0.10 0.10 64 1012.2
20260903232505 32 96 0.0 20.9 0.00 0.10 0.10 65 1012.1
20260903232007 32 151 8.0 24.1 0.00 0.10 0.10 64 1012.0
20260903231516 32 142 8.0 24.1 0.00 0.10 0.10 63 1012.1
20260903231006 32 159 4.8 16.1 0.00 0.10 0.10 63 1012.1
20260903230511 32 169 8.0 20.9 0.00 0.10 0.10 63 1012.0
20260903230033 32 173 8.0 20.9 0.00 0.10 0.10 63 1012.1
20260903225512 32 169 3.2 17.7 0.00 0.10 0.10 63 1012.1
20260903225011 32 149 9.7 17.7 0.00 0.10 0.10 62 1012.0
20260903224527 32 165 6.4 17.7 0.00 0.10 0.10 62 1012.0